Weather History for KAVP - May, 2013

Change the Weather History Date:

Wednesday, May 8, 2013

  Actual Average Record
Temperature  
Mean Temperature 61 °F 56 °F  
Max Temperature 68 °F 68 °F 91 °F (2015)
Min Temperature 53 °F 45 °F 30 °F (1956)
Degree Days  
Heating Degree Days 4 9  
Month to date heating degree days 45 80  
Since 1 July heating degree days 5654 6053  
Cooling Degree Days 0 1  
Month to date cooling degree days 0 1  
Year to date cooling degree days 4 7  
Growing Degree Days 11 (Base 50)    
Moisture  
Dew Point 54 °F    
Average Humidity 81    
Maximum Humidity 93    
Minimum Humidity 68    
Precipitation  
Precipitation 0.39 in 0.10 in 1.38 in (1923)
Month to date precipitation 0.39 0.86  
Year to date precipitation 7.14 11.14  
Sea Level Pressure  
Sea Level Pressure 30.00 in    
Wind  
Wind Speed 5 mph (ENE)    
Max Wind Speed 12 mph    
Max Gust Speed 20 mph    
Visibility 9 miles    
Events Rain    
T = Trace of Precipitation, MM = Missing Value Source: NWS Daily Summary

Daily Weather History Graph

Daily Weather History Graph

Search for Another Location

Airport or City:

Trip Planner

Search our weather history database for the weather conditions in past years. The results will help you decide how hot, cold, wet, or windy it might be!

Date:

Astronomy

May. 08, 2013 Rise Set
Actual Time 5:51 AM EDT 8:07 PM EDT
Civil Twilight 5:20 AM EDT 8:38 PM EDT
Nautical Twilight 4:42 AM EDT 9:16 PM EDT
Astronomical Twilight 4:00 AM EDT 9:59 PM EDT
Moon 4:58 AM EDT (5/8) 7:03 PM EDT (5/8)
Length of Visible Light 15h 18m
Length of Day
14h 16m
Waning Crescent, 2% of the Moon is Illuminated
May 8
Waning Crescent
May 9
New
May 18
First Quarter
May 25
Full
May 31
Last Quarter

Hourly Weather History & Observations

Time (EDT) Temp. Dew Point Humidity Pressure Visibility Wind Dir Wind Speed Gust Speed Precip Events Conditions
12:54 AM 63.0 °F 53.1 °F 70% 30.06 in 10.0 mi Variable 4.6 mph - N/A   Overcast
1:54 AM 62.1 °F 53.1 °F 72% 30.03 in 10.0 mi East 4.6 mph - 0.00 in   Overcast
2:54 AM 61.0 °F 52.0 °F 72% 30.02 in 10.0 mi Calm Calm - N/A   Overcast
3:15 AM 62.6 °F 53.6 °F 72% 30.03 in 10.0 mi NE 4.6 mph - N/A   Overcast
3:54 AM 62.1 °F 54.0 °F 75% 30.01 in 10.0 mi Calm Calm - N/A   Overcast
4:06 AM 62.6 °F 53.6 °F 72% 30.02 in 10.0 mi ENE 3.5 mph - 0.00 in Rain Light Rain
4:54 AM 62.1 °F 54.0 °F 75% 30.00 in 10.0 mi Variable 5.8 mph - 0.00 in   Mostly Cloudy
5:25 AM 62.6 °F 53.6 °F 72% 30.02 in 10.0 mi Calm Calm - N/A   Mostly Cloudy
5:54 AM 61.0 °F 54.0 °F 78% 30.01 in 10.0 mi Variable 3.5 mph - N/A   Overcast
6:10 AM 60.8 °F 53.6 °F 77% 30.03 in 10.0 mi Calm Calm - N/A   Overcast
6:54 AM 62.1 °F 55.0 °F 78% 30.02 in 10.0 mi ENE 5.8 mph - N/A   Overcast
7:54 AM 62.1 °F 54.0 °F 75% 30.03 in 10.0 mi Variable 3.5 mph - N/A   Overcast
8:54 AM 62.1 °F 54.0 °F 75% 30.03 in 10.0 mi Calm Calm - 0.00 in Rain Light Rain
9:54 AM 61.0 °F 55.9 °F 83% 30.01 in 10.0 mi ENE 9.2 mph - 0.00 in   Mostly Cloudy
10:02 AM 60.8 °F 55.4 °F 82% 30.02 in 10.0 mi ENE 8.1 mph - N/A   Mostly Cloudy
10:54 AM 63.0 °F 53.1 °F 70% 30.00 in 10.0 mi Variable 6.9 mph - N/A   Scattered Clouds
11:54 AM 59.0 °F 54.0 °F 83% 30.03 in 3.0 mi SE 6.9 mph - 0.09 in Rain Rain
12:03 PM 59.0 °F 55.4 °F 88% 30.04 in 2.0 mi ESE 4.6 mph - 0.05 in Rain Heavy Rain
12:20 PM 59.0 °F 55.4 °F 88% 30.04 in 3.0 mi East 4.6 mph - 0.12 in Rain Rain
12:32 PM 59.0 °F 55.4 °F 88% 30.02 in 2.0 mi ENE 6.9 mph - 0.18 in Rain Heavy Rain
12:43 PM 60.8 °F 55.4 °F 82% 30.01 in 4.0 mi NE 9.2 mph - 0.21 in Rain Light Rain
12:54 PM 60.1 °F 57.0 °F 90% 30.00 in 8.0 mi NE 9.2 mph - 0.21 in Rain Light Rain
1:54 PM 62.1 °F 55.0 °F 78% 29.98 in 10.0 mi Variable 6.9 mph - 0.01 in   Mostly Cloudy
2:54 PM 66.0 °F 55.0 °F 68% 29.96 in 10.0 mi Variable 4.6 mph - N/A   Mostly Cloudy
3:54 PM 66.9 °F 55.9 °F 68% 29.94 in 10.0 mi Variable 3.5 mph - N/A   Overcast
4:54 PM 64.9 °F 57.9 °F 78% 29.92 in 10.0 mi NE 8.1 mph - 0.00 in Rain Light Rain
5:54 PM 66.0 °F 57.0 °F 73% 29.91 in 10.0 mi NNW 3.5 mph - 0.00 in Rain Light Rain
6:54 PM 61.0 °F 53.1 °F 75% 29.93 in 10.0 mi SW 6.9 mph - 0.00 in   Overcast
7:54 PM 60.1 °F 53.1 °F 78% 29.93 in 10.0 mi West 4.6 mph - N/A   Mostly Cloudy
8:28 PM 60.8 °F 53.6 °F 77% 29.95 in 10.0 mi WSW 4.6 mph - 0.00 in Rain Light Rain
8:54 PM 57.0 °F 51.1 °F 81% 29.97 in 9.0 mi SSE 3.5 mph - 0.04 in Rain Light Rain
9:54 PM 55.0 °F 52.0 °F 89% 29.99 in 10.0 mi Calm Calm - 0.04 in   Overcast
10:54 PM 54.0 °F 52.0 °F 93% 29.98 in 10.0 mi East 3.5 mph - N/A   Mostly Cloudy
11:54 PM 54.0 °F 51.1 °F 90% 29.97 in 10.0 mi NE 3.5 mph - N/A   Scattered Clouds